Date String (YYYY-MM-DD hh:mm:ss) UTC,Instrument flags,Ambient pressure (hPa),Sample flow (lpm),Bypass flow (lpm),Sample temperature (°C),Ambient temperature (°C),ASC tube jacket temperature (°C),LED temperature (°C),Box temperature (°C),Sample RH (%),Span deviation,Mass concentration (μg/m³),Mass concentration (μg/m³),Mass concentration (μg/m³)
DateTimeUTC,F1_M11,P_M11,Q1_M11,Q2_M11,T1_M11,T2_M11,T3_M11,T4_M11,T5_M11,U1_M11,ZSPAN_M11,X0_M11,X2_M11,X1_M11
2022-12-15 11:00:00,,0819.4,4.97,0.00,21.8,21.7,00.0,30.6,23.7,07.5,0000.0,0007.81,0003.38,0003.02
2022-12-15 11:01:00,,0819.4,5.01,0.00,21.8,21.3,00.0,30.6,23.7,07.5,0000.0,0008.40,0003.39,0003.02
2022-12-15 11:02:00,,0819.4,5.01,0.00,21.8,20.9,00.0,30.7,23.6,07.6,0000.0,0008.39,0003.40,0003.03
2022-12-15 11:03:00,,0819.3,5.00,0.00,21.8,20.7,00.0,30.7,23.5,07.5,0000.0,0008.47,0003.41,0003.04
2022-12-15 11:04:00,,0819.2,5.01,0.00,21.8,20.6,00.0,30.7,23.5,07.6,0000.0,0008.52,0003.42,0003.04
2022-12-15 11:05:00,,0819.2,5.00,0.00,21.8,20.5,00.0,30.7,23.5,07.5,0000.0,0008.45,0003.42,0003.05
2022-12-15 11:06:00,,0819.2,4.99,0.00,21.8,20.4,00.0,30.7,23.5,07.5,0000.0,0008.52,0003.40,0003.07
2022-12-15 11:07:00,,0819.2,5.00,0.00,21.8,20.4,00.0,30.7,23.5,07.5,0000.0,0008.89,0003.39,0003.08
2022-12-15 11:08:00,,0819.2,4.99,0.00,21.7,20.2,00.0,30.6,23.5,07.6,0000.0,0008.93,0003.40,0003.08
2022-12-15 11:09:00,,0819.3,4.98,0.00,21.7,20.0,00.0,30.6,23.4,07.6,0000.0,0008.25,0003.38,0003.10
2022-12-15 11:10:00,,0819.3,5.05,0.00,21.6,19.8,00.0,30.6,23.3,07.6,0000.0,0008.13,0003.39,0003.12
2022-12-15 11:11:00,,0819.2,4.95,0.00,21.6,19.9,00.0,30.6,23.3,07.6,0000.0,0008.27,0003.40,0003.14
2022-12-15 11:12:00,,0819.2,5.05,0.00,21.7,20.8,00.0,30.5,23.5,07.5,0000.0,0007.70,0003.40,0003.15
2022-12-15 11:13:00,,0819.2,4.96,0.00,21.8,21.8,00.0,30.5,23.8,07.5,0000.0,0007.87,0003.42,0003.16
2022-12-15 11:14:00,,0819.1,5.03,0.00,21.9,21.8,00.0,30.6,23.9,07.4,0000.0,0007.94,0003.42,0003.16
2022-12-15 11:15:00,,0819.1,5.00,0.00,21.9,21.4,00.0,30.6,23.8,07.4,0000.0,0007.90,0003.43,0003.17
2022-12-15 11:16:00,,0819.2,4.97,0.00,21.9,21.1,00.0,30.7,23.8,07.3,0000.0,0007.77,0003.46,0003.16
2022-12-15 11:17:00,,0819.1,5.04,0.00,21.9,20.9,00.0,30.7,23.7,07.2,0000.0,0007.78,0003.47,0003.15
2022-12-15 11:18:00,,0819.2,4.95,0.00,21.9,20.7,00.0,30.7,23.6,06.9,0000.0,0007.20,0003.45,0003.13
2022-12-15 11:19:00,,0819.1,5.03,0.00,21.8,20.5,00.0,30.7,23.6,06.7,0000.0,0007.13,0003.42,0003.11
2022-12-15 11:20:00,,0819.2,4.97,0.00,21.8,20.4,00.0,30.7,23.6,06.6,0000.0,0006.93,0003.36,0003.04
2022-12-15 11:21:00,,0819.1,5.01,0.00,21.8,20.3,00.0,30.7,23.5,06.6,0000.0,0006.81,0003.32,0002.97
2022-12-15 11:22:00,,0819.1,5.01,0.00,21.8,20.1,00.0,30.7,23.4,06.6,0000.0,0006.08,0003.29,0002.90
2022-12-15 11:23:00,,0819.1,4.97,0.00,21.7,20.0,00.0,30.7,23.4,06.4,0000.0,0007.06,0003.23,0002.82
2022-12-15 11:24:00,,0819.2,5.04,0.00,21.7,20.0,00.0,30.6,23.4,06.2,0000.0,0006.69,0003.14,0002.72
2022-12-15 11:25:00,,0819.2,4.95,0.00,21.7,20.1,00.0,30.6,23.4,06.1,0000.0,0006.25,0003.05,0002.63
2022-12-15 11:26:00,,0819.2,5.06,0.00,21.8,21.1,00.0,30.6,23.6,06.6,0000.0,0005.91,0002.93,0002.55
2022-12-15 11:27:00,,0819.2,4.96,0.00,21.9,22.0,00.0,30.6,23.9,06.8,0000.0,0005.65,0002.83,0002.51
2022-12-15 11:28:00,,0819.3,5.03,0.00,22.0,21.9,00.0,30.6,23.9,06.7,0000.0,0006.01,0002.80,0002.47
2022-12-15 11:29:00,,0819.3,4.97,0.00,22.0,21.6,00.0,30.7,23.9,06.5,0000.0,0006.33,0002.76,0002.45
2022-12-15 11:30:00,,0819.3,5.01,0.00,22.0,21.3,00.0,30.7,23.8,06.7,0000.0,0006.24,0002.74,0002.44
2022-12-15 11:31:00,,0819.2,5.01,0.00,22.0,21.0,00.0,30.7,23.8,07.1,0000.0,0006.39,0002.83,0002.50
2022-12-15 11:32:00,,0819.3,5.00,0.00,21.9,20.8,00.0,30.7,23.8,07.2,0000.0,0006.48,0002.90,0002.57
2022-12-15 11:33:00,,0819.2,5.00,0.00,21.9,20.7,00.0,30.8,23.7,07.1,0000.0,0006.42,0002.96,0002.61
2022-12-15 11:34:00,,0819.3,5.00,0.00,21.9,20.6,00.0,30.8,23.7,07.0,0000.0,0004.72,0003.03,0002.67
2022-12-15 11:35:00,,0819.3,5.00,0.00,21.9,20.6,00.0,30.8,23.7,07.0,0000.0,0005.03,0003.09,0002.73
2022-12-15 11:36:00,,0819.3,5.00,0.00,21.9,20.5,00.0,30.8,23.7,07.0,0000.0,0005.61,0003.17,0002.81
2022-12-15 11:37:00,,0819.3,5.00,0.00,21.9,20.4,00.0,30.8,23.6,07.1,0000.0,0005.64,0003.20,0002.88
2022-12-15 11:38:00,,0819.3,5.00,0.00,21.9,20.3,00.0,30.8,23.6,07.1,0000.0,0005.68,0003.22,0002.93
2022-12-15 11:39:00,,0819.3,5.04,0.00,21.8,20.3,00.0,30.7,23.6,07.2,0000.0,0005.33,0003.25,0002.97
2022-12-15 11:40:00,,0819.3,4.96,0.00,21.8,20.4,00.0,30.7,23.6,07.3,0000.0,0005.21,0003.30,0003.03
2022-12-15 11:41:00,,0819.3,5.02,0.00,21.9,21.4,00.0,30.7,23.8,07.3,0000.0,0005.68,0003.34,0003.09
2022-12-15 11:42:00,,0819.3,5.03,0.00,22.0,22.2,00.0,30.7,24.0,07.3,0000.0,0006.41,0003.34,0003.09
2022-12-15 11:43:00,,0819.3,4.97,0.00,22.1,22.0,00.0,30.7,24.1,07.2,0000.0,0006.52,0003.35,0003.08
2022-12-15 11:44:00,,0819.3,5.02,0.00,22.1,21.6,00.0,30.8,24.0,07.2,0000.0,0006.51,0003.34,0003.09
2022-12-15 11:45:00,,0819.3,5.01,0.00,22.1,21.3,00.0,30.8,23.9,07.2,0000.0,0006.53,0003.36,0003.11
2022-12-15 11:46:00,,0819.3,5.01,0.00,22.0,21.0,00.0,30.8,23.9,07.3,0000.0,0006.75,0003.39,0003.14
2022-12-15 11:47:00,,0819.3,4.97,0.00,22.0,20.8,00.0,30.8,23.9,07.3,0000.0,0006.63,0003.41,0003.15
2022-12-15 11:48:00,,0819.3,5.05,0.00,22.0,20.7,00.0,30.8,23.8,07.3,0000.0,0006.99,0003.43,0003.15
2022-12-15 11:49:00,,0819.3,4.96,0.00,22.0,20.6,00.0,30.8,23.8,07.4,0000.0,0007.50,0003.46,0003.16
2022-12-15 11:50:00,,0819.3,5.05,0.00,22.0,20.6,00.0,30.8,23.8,07.4,0000.0,0007.48,0003.47,0003.17
2022-12-15 11:51:00,,0819.3,4.95,0.00,22.0,20.5,00.0,30.8,23.8,07.5,0000.0,0007.52,0003.49,0003.18
2022-12-15 11:52:00,,0819.3,5.00,0.00,22.0,20.4,00.0,30.8,23.7,07.5,0000.0,0007.37,0003.50,0003.19
2022-12-15 11:53:00,,0819.3,5.03,0.00,21.9,20.3,00.0,30.8,23.7,07.6,0000.0,0007.05,0003.54,0003.20
2022-12-15 11:54:00,,0819.4,4.97,0.00,21.9,20.3,00.0,30.8,23.7,07.5,0000.0,0007.38,0003.55,0003.21
2022-12-15 11:55:00,,0819.3,5.04,0.00,21.9,20.5,00.0,30.8,23.7,07.5,0000.0,0007.36,0003.55,0003.22
2022-12-15 11:56:00,,0819.3,4.96,0.00,22.0,21.5,00.0,30.7,23.9,07.5,0000.0,0007.37,0003.56,0003.23
2022-12-15 11:57:00,,0819.2,5.03,0.00,22.1,22.2,00.0,30.8,24.1,07.4,0000.0,0007.25,0003.57,0003.23
2022-12-15 11:58:00,,0819.3,4.97,0.00,22.1,22.0,00.0,30.8,24.1,07.4,0000.0,0006.90,0003.58,0003.23
2022-12-15 11:59:00,,0819.2,5.01,0.00,22.1,21.6,00.0,30.8,24.0,07.4,0000.0,0006.85,0003.62,0003.25
